User: anonymous   Login
Location: Newark
(41.6478°N, 9.0078°E)
Time: 08:03:22
(UTC+00:00)
Language:

NOAA 19 - Orbit

View from above orbital plane
View from above orbital plane
View from above satellite
View from above satellite

Ground track
Ground track

The orbit data is extracted from the following two-line orbital elements,

1 33591U 09005A   20025.85678875  .00000029  00000-0  40975-4 0  9998
2 33591  99.1932  27.4807 0014815 116.7262 243.5427 14.12393133565124
Epoch (UTC): 25 January 2020 20:33:46
Eccentricity: 0.0014815
inclination: 99.1932°
perigee height: 840 km
apogee height: 862 km
right ascension of ascending node: 27.4807°
argument of perigee: 116.7262°
revolutions per day: 14.12393133
mean anomaly at epoch: 243.5427°
orbit number at epoch: 56512

The dashed part of the orbit path shows where the satellite is in the earth's shadow,  

DLR